Wind_Speed
31 26 23 22 22 24 25 25 24 23 24 26 26 26 26 26 25 26 26 24 24 25 25 25 24 23 23 23 23 22 21 20 20 20 19 20 20 20 19 20 20 20 19 19
31 29 27 24 24 24 24 24 25 25 27 26 27 29 27 28 27 28 26 26 26 26 27 27 26 25 24 24 24 23 22 21 21 22 22 22 22 22 22 21 21 21 22 22
29 28 28 28 25 25 24 24 26 27 30 32 30 30 28 28 29 29 29 27 27 27 28 28 28 27 25 25 24 24 24 23 24 23 23 23 23 23 23 22 22 23 24 24
28 27 28 29 28 27 27 28 28 29 30 32 32 32 31 31 31 31 29 28 28 28 28 29 29 28 27 27 25 25 25 25 25 26 25 26 25 25 25 25 25 25 25 25
29 27 27 27 28 27 28 29 31 31 31 33 34 33 33 33 33 33 30 29 29 29 29 30 30 30 29 28 28 28 27 27 26 27 27 27 27 27 27 27 27 28 27 27
30 28 26 29 30 29 28 30 32 33 33 34 33 33 34 33 32 32 31 30 29 29 30 30 30 30 30 30 30 30 30 29 29 28 28 29 29 29 29 30 30 30 30 29
30 29 29 33 32 29 30 32 33 34 34 35 35 36 35 33 33 32 31 30 31 31 31 31 31 31 31 31 31 31 31 31 31 31 31 31 30 30 30 31 31 30 30 29
30 30 33 35 34 32 34 34 33 34 35 35 35 36 36 34 35 34 32 32 32 32 32 32 32 32 32 32 32 32 32 32 32 33 33 33 32 32 32 32 32 31 31 30
31 33 35 35 35 35 35 36 36 37 37 37 36 36 36 36 36 35 35 34 34 34 34 34 34 34 34 33 33 33 33 33 33 34 34 34 34 34 34 34 33 33 33 31
34 36 36 36 36 35 34 35 36 38 39 38 37 37 37 38 38 38 37 37 36 36 36 36 36 36 36 35 35 35 35 34 34 35 35 35 35 35 35 35 35 35 34 32
34 35 35 37 37 36 35 36 36 37 38 37 38 38 38 38 38 38 38 37 38 38 38 38 37 37 37 38 38 37 37 36 36 37 37 37 37 37 37 37 37 37 36 35
34 36 37 36 37 36 36 37 37 37 37 38 38 38 39 39 39 39 38 38 38 38 38 38 38 37 37 38 38 37 37 37 38 38 38 38 38 38 38 38 38 38 38 37
35 36 36 35 36 36 36 37 37 37 38 38 38 38 38 38 38 38 38 39 38 38 38 38 38 38 37 38 37 37 38 38 38 38 39 39 38 38 39 39 39 39 39 39
33 33 33 34 34 35 36 37 37 37 37 37 37 37 37 37 37 38 38 39 39 38 38 38 38 38 38 38 38 38 38 39 39 39 39 40 39 39 40 41 40 40 39 39
32 33 34 34 34 34 35 36 37 37 37 37 37 36 37 37 38 38 38 38 38 38 38 37 37 36 37 37 37 37 38 39 40 40 40 41 41 40 41 41 40 39 39 38
30 31 32 33 34 34 35 35 35 35 35 36 36 36 37 37 37 37 37 36 36 36 36 36 37 36 37 37 37 37 38 38 38 39 39 40 40 41 41 41 40 39 38 38
29 29 30 31 32 32 33 33 34 33 33 34 34 34 35 35 35 35 34 34 34 34 34 34 35 35 36 36 36 37 37 37 38 38 38 39 40 40 40 39 38 37 38 38
28 29 30 31 31 31 31 32 33 33 33 33 32 33 33 34 34 33 32 32 33 33 33 33 33 33 34 34 35 35 35 35 35 36 36 36 37 36 36 37 36 35 35 35
26 26 26 27 28 30 30 30 31 31 31 31 31 31 31 31 30 30 29 29 30 31 31 32 32 33 32 32 32 32 32 33 34 34 35 35 35 35 34 34 34 32 32 32
23 23 24 25 25 27 27 27 28 28 28 29 29 29 29 29 29 28 27 27 27 28 29 30 31 31 32 31 31 32 32 33 34 34 34 33 33 33 33 33 33 31 30 30
21 21 22 22 23 24 25 25 26 26 26 26 26 26 26 25 26 25 25 26 26 26 27 28 28 28 29 29 30 30 30 30 31 32 31 31 32 32 31 30 30 30 30 29
18 18 19 20 20 21 21 22 22 23 23 23 23 23 23 23 23 24 24 25 25 25 25 25 25 26 26 27 28 28 28 29 29 29 29 29 29 28 28 29 29 29 30 30
16 16 16 17 17 17 17 18 18 19 20 20 21 21 21 21 21 22 23 23 22 22 22 23 24 24 25 25 24 24 24 24 25 25 25 25 25 25 26 27 28 28 29 29
14 14 14 15 15 15 15 15 15 15 15 16 17 17 18 18 18 19 19 19 19 20 20 21 22 22 22 22 22 22 23 23 23 23 23 23 24 24 25 25 26 26 26 26
13 12 11 11 11 12 13 12 12 12 12 13 13 14 15 15 15 16 16 17 17 18 18 17 16 17 17 18 18 18 19 19 20 21 22 23 23 24 24 24 24 24 24 25
10 9 9 9 9 9 10 10 10 9 9 9 10 10 11 11 12 12 12 13 13 13 13 14 14 15 16 16 16 17 17 18 19 20 20 21 22 22 23 23 24 25 25 26
7 7 7 7 7 7 7 7 7 7 7 7 8 9 9 10 10 10 10 10 10 11 12 13 13 14 15 15 15 16 16 17 17 18 18 19 21 22 23 23 24 24 25 25
Wind_Direction
221 223 232 237 237 232 233 230 235 243 249 253 260 262 264 266 269 270 270 268 270 274 277 278 279 281 284 285 286 289 289 290 292 294 297 298 298 299 301 304 305 301 299 298
225 223 230 235 235 237 237 240 240 242 248 251 257 259 264 267 267 266 268 268 270 272 275 275 275 276 280 282 283 285 287 288 289 290 293 295 294 295 295 297 302 303 301 300
229 228 231 235 233 236 239 240 240 240 246 251 256 258 260 264 266 267 267 268 270 272 274 275 277 275 275 277 278 280 283 285 287 286 290 293 293 296 297 297 299 301 300 299
230 230 235 237 236 239 241 243 244 245 247 252 254 257 260 263 264 267 268 269 270 271 272 274 276 274 275 275 277 280 282 282 285 286 287 289 290 289 291 293 294 297 296 295
231 233 238 242 239 238 241 242 245 246 248 253 257 257 259 261 265 268 269 270 270 269 270 272 274 274 275 275 277 278 280 282 283 284 286 287 287 289 290 292 292 294 293 292
233 232 236 240 244 243 242 244 244 246 249 252 255 258 259 261 264 266 267 267 268 268 269 271 272 274 275 276 275 274 274 276 278 280 283 285 286 288 289 291 292 292 290 290
234 236 237 242 243 244 244 245 247 249 252 254 255 259 261 263 265 268 268 266 266 268 270 271 273 274 275 275 274 273 273 273 274 277 279 282 285 287 289 291 291 292 291 290
236 235 237 243 244 243 245 247 250 253 255 257 257 259 261 262 263 265 267 267 268 269 270 271 273 273 274 273 272 272 273 274 275 276 276 279 282 284 286 288 288 290 289 289
234 237 241 245 247 245 246 249 251 252 255 257 259 260 261 261 262 263 265 266 268 269 269 269 271 272 273 272 271 270 271 273 274 276 278 277 279 282 283 284 286 287 288 288
238 240 243 246 249 250 250 251 252 254 256 257 258 260 260 261 262 264 266 267 268 269 269 269 270 271 272 271 270 270 271 272 275 277 278 278 278 279 280 282 284 285 285 286
242 243 243 246 251 253 254 253 254 256 257 258 260 259 260 262 263 264 266 267 268 269 269 269 270 271 271 272 270 269 271 273 275 277 278 279 278 277 279 280 282 283 284 286
246 247 249 249 252 255 256 257 256 257 258 260 261 262 262 263 264 265 266 266 268 269 269 268 268 269 270 270 270 270 272 273 274 275 275 277 277 277 278 279 281 283 283 283
247 248 252 254 255 256 257 259 260 260 261 261 262 263 264 264 264 265 266 266 267 268 269 268 269 268 269 269 270 271 272 273 274 275 276 277 278 279 280 282 283 284 282 280
250 252 255 256 258 258 259 260 261 261 262 263 263 264 264 265 266 266 266 266 267 268 268 268 268 269 271 270 270 270 271 272 274 275 275 276 278 279 281 282 283 284 284 283
255 256 257 257 258 260 260 261 261 262 262 262 262 263 265 266 266 267 267 266 267 267 267 268 268 269 269 270 270 270 271 272 273 275 276 277 278 279 280 280 281 281 282 282
257 258 259 259 260 261 260 260 261 262 263 262 262 264 265 267 267 267 267 266 266 266 267 267 267 268 268 269 270 270 271 272 273 274 276 277 278 279 280 280 279 278 279 280
261 261 261 261 261 261 261 260 260 261 261 262 263 264 265 266 267 267 267 266 266 266 267 266 267 268 269 270 272 272 271 271 273 274 275 277 278 279 279 281 279 278 278 279
265 265 264 261 259 260 260 260 261 261 261 262 264 264 265 266 266 267 268 267 266 266 268 268 269 270 271 272 272 273 272 272 273 275 275 277 279 280 279 279 278 278 278 278
266 267 268 264 260 260 261 261 260 261 261 262 264 265 265 265 266 267 267 267 268 269 269 270 270 270 271 272 274 273 273 273 274 275 276 278 281 280 279 279 282 282 282 281
268 268 269 268 265 261 260 260 259 259 261 263 263 264 264 265 266 267 266 268 269 270 271 271 272 271 271 273 274 274 274 276 277 277 278 279 278 279 281 282 283 283 283 283
269 271 271 268 267 264 263 262 262 262 263 265 265 264 264 265 267 267 268 269 270 271 273 273 273 273 272 273 275 276 276 276 277 277 278 278 277 278 279 282 283 283 285 286
271 272 272 271 268 265 264 263 263 263 264 265 264 265 264 266 268 270 270 270 271 272 273 274 275 275 273 274 276 276 276 277 277 278 279 279 278 279 281 284 286 286 286 288
270 271 272 272 268 265 264 264 264 265 265 262 262 264 266 268 269 272 271 269 270 271 272 273 273 274 276 279 280 279 279 279 280 282 282 282 282 283 285 287 288 288 288 289
270 271 274 274 269 265 266 267 265 264 262 261 262 264 266 269 271 274 274 273 273 273 274 276 276 278 279 280 282 283 282 281 283 284 285 285 286 288 288 290 291 290 291 292
274 275 277 277 268 262 262 265 266 265 265 263 262 264 266 267 270 273 274 274 273 274 275 276 278 283 287 286 286 286 285 283 283 285 287 290 291 291 291 292 293 292 293 294
280 279 279 274 265 262 263 265 265 262 261 261 263 268 271 272 273 275 275 276 275 275 278 283 286 288 290 290 289 291 292 291 289 289 290 292 293 294 296 297 296 295 296 297
275 273 271 272 277 277 269 268 267 263 264 273 280 282 282 280 278 281 285 285 284 285 287 289 289 292 295 295 296 297 297 297 297 296 296 295 295 296 297 298 299 299 298 298
Height
5861 5866 5869 5871 5874 5876 5879 5882 5884 5886 5885 5884 5882 5883 5884 5884 5885 5885 5884 5885 5886 5885 5885 5885 5884 5884 5884 5884 5883 5882 5881 5880 5879 5878 5877 5876 5875 5874 5873 5872 5870 5869 5868 5867
5854 5859 5862 5865 5868 5870 5873 5876 5877 5879 5877 5876 5876 5876 5877 5878 5878 5879 5878 5879 5880 5879 5879 5879 5878 5878 5878 5878 5878 5877 5876 5875 5874 5873 5872 5871 5870 5869 5868 5867 5866 5865 5864 5862
5847 5853 5856 5858 5861 5864 5866 5867 5869 5871 5871 5869 5870 5870 5871 5871 5872 5872 5873 5873 5874 5873 5873 5872 5871 5872 5871 5872 5871 5871 5870 5870 5868 5867 5866 5866 5865 5864 5862 5861 5861 5860 5858 5857
5841 5845 5848 5852 5854 5857 5859 5860 5861 5862 5862 5862 5863 5864 5864 5864 5864 5865 5865 5866 5867 5867 5866 5866 5865 5865 5864 5865 5865 5864 5864 5863 5863 5861 5860 5859 5858 5857 5856 5856 5855 5853 5852 5851
5834 5838 5841 5844 5845 5848 5850 5852 5853 5853 5854 5854 5854 5856 5856 5857 5857 5858 5859 5859 5859 5859 5859 5859 5858 5858 5857 5858 5858 5858 5857 5857 5856 5855 5854 5854 5852 5851 5850 5849 5848 5847 5845 5844
5827 5831 5835 5836 5836 5839 5843 5843 5843 5844 5845 5846 5846 5847 5848 5848 5848 5850 5851 5851 5851 5851 5851 5852 5851 5851 5850 5850 5850 5850 5850 5849 5849 5848 5848 5847 5846 5845 5843 5842 5841 5839 5838 5837
5819 5822 5826 5825 5827 5831 5834 5833 5834 5835 5836 5837 5839 5839 5840 5840 5841 5842 5842 5843 5843 5844 5844 5844 5844 5843 5843 5843 5842 5842 5842 5842 5841 5841 5840 5840 5838 5837 5836 5835 5833 5831 5830 5829
5811 5814 5817 5815 5819 5821 5822 5823 5825 5827 5827 5828 5830 5830 5831 5831 5832 5834 5834 5835 5835 5835 5835 5835 5835 5835 5834 5834 5833 5833 5833 5833 5833 5832 5831 5831 5830 5829 5828 5827 5826 5824 5823 5821
5802 5805 5806 5807 5809 5811 5813 5815 5816 5818 5818 5820 5821 5821 5822 5823 5824 5825 5825 5826 5826 5826 5826 5826 5826 5826 5825 5825 5824 5824 5824 5824 5823 5823 5822 5821 5821 5820 5820 5819 5818 5817 5815 5813
5793 5795 5797 5799 5800 5801 5803 5805 5807 5808 5808 5810 5811 5812 5813 5814 5814 5815 5815 5816 5816 5816 5816 5816 5816 5816 5816 5815 5815 5815 5814 5814 5814 5813 5812 5811 5811 5811 5810 5809 5809 5808 5806 5805
5784 5786 5787 5789 5791 5793 5794 5795 5797 5797 5797 5798 5801 5802 5803 5803 5804 5804 5805 5805 5805 5805 5805 5805 5805 5805 5805 5804 5804 5804 5804 5804 5804 5803 5802 5802 5801 5800 5800 5800 5799 5797 5796 5795
5775 5776 5778 5780 5781 5783 5784 5785 5786 5788 5788 5789 5790 5791 5791 5792 5793 5793 5793 5794 5794 5794 5794 5794 5794 5794 5794 5793 5793 5793 5794 5794 5793 5793 5792 5791 5790 5789 5788 5789 5788 5786 5785 5784
5764 5766 5768 5770 5771 5773 5774 5775 5776 5777 5778 5779 5779 5780 5780 5781 5781 5781 5782 5782 5782 5783 5783 5783 5783 5783 5783 5782 5783 5783 5783 5783 5782 5782 5781 5780 5779 5778 5778 5777 5776 5775 5774 5773
5756 5757 5758 5760 5760 5762 5764 5765 5766 5766 5767 5768 5769 5769 5769 5770 5770 5770 5771 5771 5771 5771 5771 5772 5772 5772 5772 5771 5772 5772 5772 5772 5772 5771 5770 5770 5769 5768 5767 5766 5765 5764 5763 5762
5747 5749 5750 5751 5751 5752 5754 5754 5755 5756 5757 5758 5758 5758 5759 5759 5759 5759 5759 5759 5759 5760 5760 5760 5761 5761 5761 5761 5762 5762 5761 5761 5761 5760 5759 5758 5758 5757 5755 5754 5753 5752 5751 5751
5739 5740 5741 5741 5742 5743 5743 5744 5744 5745 5746 5747 5747 5748 5748 5749 5748 5748 5748 5748 5748 5749 5749 5749 5750 5750 5750 5751 5751 5751 5751 5750 5750 5749 5748 5747 5746 5745 5743 5741 5741 5741 5741 5740
5730 5731 5731 5731 5732 5733 5733 5734 5734 5734 5736 5736 5737 5738 5738 5738 5738 5738 5737 5738 5738 5739 5739 5739 5740 5740 5740 5740 5740 5740 5740 5740 5739 5738 5737 5736 5735 5733 5731 5730 5730 5729 5730 5729
5721 5722 5721 5721 5722 5723 5723 5724 5724 5726 5726 5727 5727 5728 5728 5728 5728 5728 5729 5728 5728 5729 5729 5729 5730 5730 5730 5730 5730 5729 5729 5730 5729 5728 5727 5726 5725 5723 5721 5720 5719 5719 5719 5718
5713 5712 5712 5712 5712 5713 5714 5714 5715 5716 5717 5718 5718 5719 5719 5719 5720 5720 5720 5720 5720 5720 5721 5721 5721 5721 5720 5720 5720 5720 5720 5720 5719 5718 5717 5716 5715 5714 5712 5711 5710 5709 5708 5708
5705 5704 5704 5703 5704 5704 5705 5706 5706 5707 5709 5710 5710 5710 5711 5711 5712 5712 5712 5712 5712 5712 5712 5712 5712 5712 5712 5712 5712 5711 5711 5710 5710 5709 5708 5707 5706 5705 5704 5703 5702 5701 5700 5699
5698 5697 5696 5695 5695 5696 5697 5698 5699 5700 5701 5702 5702 5702 5703 5703 5704 5704 5705 5705 5705 5705 5704 5704 5704 5704 5704 5704 5703 5703 5702 5701 5701 5700 5699 5698 5697 5696 5695 5694 5693 5693 5692 5690
5692 5691 5689 5689 5689 5690 5691 5691 5692 5693 5694 5694 5695 5696 5696 5697 5697 5698 5698 5698 5698 5698 5698 5697 5697 5697 5696 5696 5696 5695 5694 5693 5693 5692 5691 5690 5689 5688 5687 5686 5685 5685 5684 5682
5687 5686 5685 5685 5684 5685 5685 5686 5686 5687 5688 5688 5689 5690 5691 5691 5691 5692 5692 5692 5691 5691 5691 5691 5690 5690 5690 5689 5688 5687 5687 5686 5685 5684 5684 5683 5682 5681 5680 5679 5678 5677 5676 5674
5682 5682 5681 5680 5680 5680 5681 5681 5682 5682 5683 5684 5684 5685 5685 5686 5686 5685 5685 5685 5685 5685 5685 5685 5684 5683 5683 5683 5682 5681 5680 5679 5679 5678 5677 5676 5675 5674 5673 5672 5670 5669 5668 5666
5679 5678 5677 5676 5676 5677 5678 5678 5679 5679 5679 5680 5680 5681 5681 5681 5681 5681 5681 5681 5681 5681 5680 5680 5679 5678 5678 5677 5676 5675 5674 5674 5673 5672 5671 5670 5669 5668 5666 5665 5664 5662 5660 5658
5675 5675 5674 5674 5674 5675 5675 5675 5675 5676 5677 5677 5678 5678 5678 5678 5678 5678 5677 5677 5677 5677 5676 5676 5675 5674 5674 5672 5672 5671 5670 5668 5667 5666 5666 5664 5663 5662 5660 5659 5657 5655 5653 5651
5674 5673 5673 5673 5672 5673 5673 5674 5674 5674 5675 5675 5675 5676 5676 5676 5676 5675 5675 5675 5674 5674 5673 5672 5671 5671 5670 5668 5667 5666 5665 5664 5663 5661 5660 5659 5657 5656 5654 5652 5650 5648 5646 5644